NIMIQ 2                 
1 27632U 02062A   19259.49945196 -.00000268  00000-0  00000+0 0  9999
2 27632   3.7354  77.7241 0006088  22.5408 192.5600  1.01222122 61143
BREEZE-M R/B            
1 27633U 02062B   19259.52099924 -.00000088  00000-0  00000-0 0  9994
2 27633  15.4938 240.2691 4879096 358.3751 153.6892  1.83740097112199
BREEZE-M DEB [TANK]     
1 27646U 02062C   19259.73472718 -.00000040  00000-0 -81534-4 0  9991
2 27646  49.5469 288.8739 5404318 319.6659 269.9696  4.61557323281636